Time,TemperatureF,DewpointF,PressureIn,WindDirection,WindDirectionDegrees,WindSpeedMPH,WindSpeedGustMPH,Humidity,HourlyPrecipIn,Conditions,Clouds,dailyrainin,SoftwareType,DateUTC
2013-02-02 00:00:00,6.0,0.0,-100.00,ENE,70,2.0,6.0,76,-99.99,,,-99.99,,2013-02-02 06:00:00,
2013-02-02 00:22:00,6.0,0.0,-100.00,ENE,70,2.0,6.0,76,-99.99,,,-99.99,,2013-02-02 06:22:00,
2013-02-02 00:32:00,6.0,0.0,-100.00,ENE,70,2.0,6.0,76,-99.99,,,-99.99,,2013-02-02 06:32:00,
2013-02-02 00:42:00,6.0,0.0,-100.00,ENE,70,2.0,6.0,76,-99.99,,,-99.99,,2013-02-02 06:42:00,
2013-02-02 00:52:00,6.0,0.0,-100.00,ENE,70,2.0,6.0,76,-99.99,,,-99.99,,2013-02-02 06:52:00,
2013-02-02 01:00:00,7.0,1.0,-100.00,NE,55,1.0,3.0,77,-99.99,,,-99.99,,2013-02-02 07:00:00,
2013-02-02 01:21:00,7.0,1.0,-100.00,NE,55,1.0,3.0,77,-99.99,,,-99.99,,2013-02-02 07:21:00,
2013-02-02 01:32:00,7.0,1.0,-100.00,NE,55,1.0,3.0,77,-99.99,,,-99.99,,2013-02-02 07:32:00,
2013-02-02 01:42:00,7.0,1.0,-100.00,NE,55,1.0,3.0,77,-99.99,,,-99.99,,2013-02-02 07:42:00,
2013-02-02 01:52:00,7.0,1.0,-100.00,NE,55,1.0,3.0,77,-99.99,,,-99.99,,2013-02-02 07:52:00,
2013-02-02 02:00:00,7.0,2.0,-100.00,NNE,30,1.0,3.0,78,-99.99,,,-99.99,,2013-02-02 08:00:00,
2013-02-02 02:21:00,7.0,2.0,-100.00,NNE,30,1.0,3.0,78,-99.99,,,-99.99,,2013-02-02 08:21:00,
2013-02-02 02:32:00,7.0,2.0,-100.00,NNE,30,1.0,3.0,78,-99.99,,,-99.99,,2013-02-02 08:32:00,
2013-02-02 02:42:00,7.0,2.0,-100.00,NNE,30,1.0,3.0,78,-99.99,,,-99.99,,2013-02-02 08:42:00,
2013-02-02 02:53:00,7.0,2.0,-100.00,NNE,30,1.0,3.0,78,-99.99,,,-99.99,,2013-02-02 08:53:00,
2013-02-02 03:00:00,8.0,2.0,-100.00,NNE,25,2.0,4.0,78,-99.99,,,-99.99,,2013-02-02 09:00:00,
2013-02-02 03:22:00,8.0,2.0,-100.00,NNE,25,2.0,4.0,78,-99.99,,,-99.99,,2013-02-02 09:22:00,
2013-02-02 03:32:00,8.0,2.0,-100.00,NNE,25,2.0,4.0,78,-99.99,,,-99.99,,2013-02-02 09:32:00,
2013-02-02 03:42:00,8.0,2.0,-100.00,NNE,25,2.0,4.0,78,-99.99,,,-99.99,,2013-02-02 09:42:00,
2013-02-02 03:52:00,8.0,2.0,-100.00,NNE,25,2.0,4.0,78,-99.99,,,-99.99,,2013-02-02 09:52:00,
2013-02-02 04:00:00,8.0,2.0,-100.00,NNE,15,1.0,3.0,78,-99.99,,,-99.99,,2013-02-02 10:00:00,
2013-02-02 04:21:00,8.0,2.0,-100.00,NNE,15,1.0,3.0,78,-99.99,,,-99.99,,2013-02-02 10:21:00,
2013-02-02 04:32:00,8.0,2.0,-100.00,NNE,15,1.0,3.0,78,-99.99,,,-99.99,,2013-02-02 10:32:00,
2013-02-02 04:42:00,8.0,2.0,-100.00,NNE,15,1.0,3.0,78,-99.99,,,-99.99,,2013-02-02 10:42:00,
2013-02-02 04:52:00,8.0,2.0,-100.00,NNE,15,1.0,3.0,78,-99.99,,,-99.99,,2013-02-02 10:52:00,
2013-02-02 05:00:00,8.0,2.0,-100.00,NNE,25,2.0,4.0,78,-99.99,,,-99.99,,2013-02-02 11:00:00,
2013-02-02 05:22:00,8.0,2.0,-100.00,NNE,25,2.0,4.0,78,-99.99,,,-99.99,,2013-02-02 11:22:00,
2013-02-02 05:32:00,8.0,2.0,-100.00,NNE,25,2.0,4.0,78,-99.99,,,-99.99,,2013-02-02 11:32:00,
2013-02-02 05:42:00,8.0,2.0,-100.00,NNE,25,2.0,4.0,78,-99.99,,,-99.99,,2013-02-02 11:42:00,
2013-02-02 05:52:00,8.0,2.0,-100.00,NNE,25,2.0,4.0,78,-99.99,,,-99.99,,2013-02-02 11:52:00,
2013-02-02 06:00:00,7.0,2.0,-100.00,NNE,20,4.0,8.0,78,-99.99,,,-99.99,,2013-02-02 12:00:00,
2013-02-02 06:22:00,7.0,2.0,-100.00,NNE,20,4.0,8.0,78,-99.99,,,-99.99,,2013-02-02 12:22:00,
2013-02-02 06:32:00,7.0,2.0,-100.00,NNE,20,4.0,8.0,78,-99.99,,,-99.99,,2013-02-02 12:32:00,
2013-02-02 06:42:00,7.0,2.0,-100.00,NNE,20,4.0,8.0,78,-99.99,,,-99.99,,2013-02-02 12:42:00,
2013-02-02 06:52:00,7.0,2.0,-100.00,NNE,20,4.0,8.0,78,-99.99,,,-99.99,,2013-02-02 12:52:00,
2013-02-02 07:00:00,7.0,1.0,-100.00,SE,135,3.0,9.0,78,-99.99,,,-99.99,,2013-02-02 13:00:00,
2013-02-02 07:22:00,7.0,1.0,-100.00,SE,135,3.0,9.0,78,-99.99,,,-99.99,,2013-02-02 13:22:00,
2013-02-02 07:33:00,7.0,1.0,-100.00,SE,135,3.0,9.0,78,-99.99,,,-99.99,,2013-02-02 13:33:00,
2013-02-02 07:42:00,7.0,1.0,-100.00,SE,135,3.0,9.0,78,-99.99,,,-99.99,,2013-02-02 13:42:00,
2013-02-02 07:52:00,7.0,1.0,-100.00,SE,135,3.0,9.0,78,-99.99,,,-99.99,,2013-02-02 13:52:00,
2013-02-02 08:00:00,6.0,1.0,-100.00,SE,135,6.0,11.0,78,-99.99,,,-99.99,,2013-02-02 14:00:00,
2013-02-02 08:22:00,6.0,1.0,-100.00,SE,135,6.0,11.0,78,-99.99,,,-99.99,,2013-02-02 14:22:00,
2013-02-02 08:33:00,6.0,1.0,-100.00,SE,135,6.0,11.0,78,-99.99,,,-99.99,,2013-02-02 14:33:00,
2013-02-02 08:42:00,6.0,1.0,-100.00,SE,135,6.0,11.0,78,-99.99,,,-99.99,,2013-02-02 14:42:00,
2013-02-02 08:52:00,6.0,1.0,-100.00,SE,135,6.0,11.0,78,-99.99,,,-99.99,,2013-02-02 14:52:00,
2013-02-02 09:00:00,8.0,2.0,-100.00,North,5,4.0,11.0,78,-99.99,,,-99.99,,2013-02-02 15:00:00,
2013-02-02 09:22:00,8.0,2.0,-100.00,North,5,4.0,11.0,78,-99.99,,,-99.99,,2013-02-02 15:22:00,
2013-02-02 09:33:00,8.0,2.0,-100.00,North,5,4.0,11.0,78,-99.99,,,-99.99,,2013-02-02 15:33:00,
2013-02-02 09:42:00,8.0,2.0,-100.00,North,5,4.0,11.0,78,-99.99,,,-99.99,,2013-02-02 15:42:00,
2013-02-02 09:52:00,8.0,2.0,-100.00,North,5,4.0,11.0,78,-99.99,,,-99.99,,2013-02-02 15:52:00,
2013-02-02 10:00:00,8.0,2.0,-100.00,SE,130,6.0,11.0,78,-99.99,,,-99.99,,2013-02-02 16:00:00,
2013-02-02 10:23:00,8.0,2.0,-100.00,SE,130,6.0,11.0,78,-99.99,,,-99.99,,2013-02-02 16:23:00,
2013-02-02 10:32:00,8.0,2.0,-100.00,SE,130,6.0,11.0,78,-99.99,,,-99.99,,2013-02-02 16:32:00,
2013-02-02 10:42:00,8.0,2.0,-100.00,SE,130,6.0,11.0,78,-99.99,,,-99.99,,2013-02-02 16:42:00,
2013-02-02 10:52:00,8.0,2.0,-100.00,SE,130,6.0,11.0,78,-99.99,,,-99.99,,2013-02-02 16:52:00,
2013-02-02 11:00:00,10.0,0.0,-100.00,SE,130,3.0,10.0,64,-99.99,,,-99.99,,2013-02-02 17:00:00,
2013-02-02 11:23:00,10.0,0.0,-100.00,SE,130,3.0,10.0,64,-99.99,,,-99.99,,2013-02-02 17:23:00,
2013-02-02 11:33:00,10.0,0.0,-100.00,SE,130,3.0,10.0,64,-99.99,,,-99.99,,2013-02-02 17:33:00,
2013-02-02 11:42:00,10.0,0.0,-100.00,SE,130,3.0,10.0,64,-99.99,,,-99.99,,2013-02-02 17:42:00,
2013-02-02 11:52:00,10.0,0.0,-100.00,SE,130,3.0,10.0,64,-99.99,,,-99.99,,2013-02-02 17:52:00,
2013-02-02 12:00:00,11.0,0.0,-100.00,SE,135,4.0,10.0,62,-99.99,,,-99.99,,2013-02-02 18:00:00,
2013-02-02 12:22:00,11.0,0.0,-100.00,SE,135,4.0,10.0,62,-99.99,,,-99.99,,2013-02-02 18:22:00,
2013-02-02 12:32:00,11.0,0.0,-100.00,SE,135,4.0,10.0,62,-99.99,,,-99.99,,2013-02-02 18:32:00,
2013-02-02 12:42:00,11.0,0.0,-100.00,SE,135,4.0,10.0,62,-99.99,,,-99.99,,2013-02-02 18:42:00,
2013-02-02 12:52:00,11.0,0.0,-100.00,SE,135,4.0,10.0,62,-99.99,,,-99.99,,2013-02-02 18:52:00,
2013-02-02 13:00:00,12.0,0.0,-100.00,SE,130,3.0,11.0,58,-99.99,,,-99.99,,2013-02-02 19:00:00,
2013-02-02 13:22:00,12.0,0.0,-100.00,SE,130,3.0,11.0,58,-99.99,,,-99.99,,2013-02-02 19:22:00,
2013-02-02 13:32:00,12.0,0.0,-100.00,SE,130,3.0,11.0,58,-99.99,,,-99.99,,2013-02-02 19:32:00,
2013-02-02 13:42:00,12.0,0.0,-100.00,SE,130,3.0,11.0,58,-99.99,,,-99.99,,2013-02-02 19:42:00,
2013-02-02 13:52:00,12.0,0.0,-100.00,SE,130,3.0,11.0,58,-99.99,,,-99.99,,2013-02-02 19:52:00,
2013-02-02 14:00:00,13.0,-1.0,-100.00,NNE,15,2.0,9.0,53,-99.99,,,-99.99,,2013-02-02 20:00:00,
2013-02-02 14:22:00,13.0,-1.0,-100.00,NNE,15,2.0,9.0,53,-99.99,,,-99.99,,2013-02-02 20:22:00,
2013-02-02 14:32:00,13.0,-1.0,-100.00,NNE,15,2.0,9.0,53,-99.99,,,-99.99,,2013-02-02 20:32:00,
2013-02-02 14:42:00,13.0,-1.0,-100.00,NNE,15,2.0,9.0,53,-99.99,,,-99.99,,2013-02-02 20:42:00,
2013-02-02 14:52:00,13.0,-1.0,-100.00,NNE,15,2.0,9.0,53,-99.99,,,-99.99,,2013-02-02 20:52:00,
2013-02-02 15:00:00,12.0,-2.0,-100.00,North,10,2.0,9.0,53,-99.99,,,-99.99,,2013-02-02 21:00:00,
2013-02-02 15:22:00,12.0,-2.0,-100.00,North,10,2.0,9.0,53,-99.99,,,-99.99,,2013-02-02 21:22:00,
2013-02-02 15:32:00,12.0,-2.0,-100.00,North,10,2.0,9.0,53,-99.99,,,-99.99,,2013-02-02 21:32:00,
2013-02-02 15:42:00,12.0,-2.0,-100.00,North,10,2.0,9.0,53,-99.99,,,-99.99,,2013-02-02 21:42:00,
2013-02-02 15:52:00,12.0,-2.0,-100.00,North,10,2.0,9.0,53,-99.99,,,-99.99,,2013-02-02 21:52:00,
2013-02-02 16:00:00,11.0,-2.0,-100.00,NNE,15,1.0,5.0,55,-99.99,,,-99.99,,2013-02-02 22:00:00,
2013-02-02 16:22:00,11.0,-2.0,-100.00,NNE,15,1.0,5.0,55,-99.99,,,-99.99,,2013-02-02 22:22:00,
2013-02-02 16:32:00,11.0,-2.0,-100.00,NNE,15,1.0,5.0,55,-99.99,,,-99.99,,2013-02-02 22:32:00,
2013-02-02 16:42:00,11.0,-2.0,-100.00,NNE,15,1.0,5.0,55,-99.99,,,-99.99,,2013-02-02 22:42:00,
2013-02-02 16:52:00,11.0,-2.0,-100.00,NNE,15,1.0,5.0,55,-99.99,,,-99.99,,2013-02-02 22:52:00,
2013-02-02 17:00:00,10.0,-2.0,-100.00,SE,135,0.0,2.0,58,-99.99,,,-99.99,,2013-02-02 23:00:00,
2013-02-02 17:22:00,10.0,-2.0,-100.00,SE,135,0.0,2.0,58,-99.99,,,-99.99,,2013-02-02 23:22:00,
2013-02-02 17:32:00,10.0,-2.0,-100.00,SE,135,0.0,2.0,58,-99.99,,,-99.99,,2013-02-02 23:32:00,
2013-02-02 17:42:00,10.0,-2.0,-100.00,SE,135,0.0,2.0,58,-99.99,,,-99.99,,2013-02-02 23:42:00,
2013-02-02 17:52:00,10.0,-2.0,-100.00,SE,135,0.0,2.0,58,-99.99,,,-99.99,,2013-02-02 23:52:00,
2013-02-02 18:00:00,9.0,-1.0,-100.00,SE,140,0.0,1.0,64,-99.99,,,-99.99,,2013-02-03 00:00:00,
2013-02-02 18:22:00,9.0,-1.0,-100.00,SE,140,0.0,1.0,64,-99.99,,,-99.99,,2013-02-03 00:22:00,
2013-02-02 18:32:00,9.0,-1.0,-100.00,SE,140,0.0,1.0,64,-99.99,,,-99.99,,2013-02-03 00:32:00,
2013-02-02 18:42:00,9.0,-1.0,-100.00,SE,140,0.0,1.0,64,-99.99,,,-99.99,,2013-02-03 00:42:00,
2013-02-02 18:52:00,9.0,-1.0,-100.00,SE,140,0.0,1.0,64,-99.99,,,-99.99,,2013-02-03 00:52:00,
2013-02-02 19:00:00,9.0,1.0,-100.00,NE,55,1.0,3.0,69,-99.99,,,-99.99,,2013-02-03 01:00:00,
2013-02-02 19:21:00,9.0,1.0,-100.00,NE,55,1.0,3.0,69,-99.99,,,-99.99,,2013-02-03 01:21:00,
2013-02-02 19:32:00,9.0,1.0,-100.00,NE,55,1.0,3.0,69,-99.99,,,-99.99,,2013-02-03 01:32:00,
2013-02-02 19:42:00,9.0,1.0,-100.00,NE,55,1.0,3.0,69,-99.99,,,-99.99,,2013-02-03 01:42:00,
2013-02-02 19:52:00,9.0,1.0,-100.00,NE,55,1.0,3.0,69,-99.99,,,-99.99,,2013-02-03 01:52:00,
2013-02-02 20:00:00,8.0,1.0,-100.00,East,80,1.0,2.0,71,-99.99,,,-99.99,,2013-02-03 02:00:00,
2013-02-02 20:21:00,8.0,1.0,-100.00,East,80,1.0,2.0,71,-99.99,,,-99.99,,2013-02-03 02:21:00,
2013-02-02 20:32:00,8.0,1.0,-100.00,East,80,1.0,2.0,71,-99.99,,,-99.99,,2013-02-03 02:32:00,
2013-02-02 20:42:00,8.0,1.0,-100.00,East,80,1.0,2.0,71,-99.99,,,-99.99,,2013-02-03 02:42:00,
2013-02-02 20:52:00,8.0,1.0,-100.00,East,80,1.0,2.0,71,-99.99,,,-99.99,,2013-02-03 02:52:00,
2013-02-02 21:00:00,6.0,0.0,-100.00,ENE,60,1.0,2.0,74,-99.99,,,-99.99,,2013-02-03 03:00:00,
2013-02-02 21:22:00,6.0,0.0,-100.00,ENE,60,1.0,2.0,74,-99.99,,,-99.99,,2013-02-03 03:22:00,
2013-02-02 21:32:00,6.0,0.0,-100.00,ENE,60,1.0,2.0,74,-99.99,,,-99.99,,2013-02-03 03:32:00,
2013-02-02 21:42:00,6.0,0.0,-100.00,ENE,60,1.0,2.0,74,-99.99,,,-99.99,,2013-02-03 03:42:00,
2013-02-02 21:52:00,6.0,0.0,-100.00,ENE,60,1.0,2.0,74,-99.99,,,-99.99,,2013-02-03 03:52:00,
2013-02-02 22:00:00,6.0,0.0,-100.00,NE,40,0.0,2.0,76,-99.99,,,-99.99,,2013-02-03 04:00:00,
2013-02-02 22:22:00,6.0,0.0,-100.00,NE,40,0.0,2.0,76,-99.99,,,-99.99,,2013-02-03 04:22:00,
2013-02-02 22:32:00,6.0,0.0,-100.00,NE,40,0.0,2.0,76,-99.99,,,-99.99,,2013-02-03 04:32:00,
2013-02-02 22:42:00,6.0,0.0,-100.00,NE,40,0.0,2.0,76,-99.99,,,-99.99,,2013-02-03 04:42:00,
2013-02-02 22:52:00,6.0,0.0,-100.00,NE,40,0.0,2.0,76,-99.99,,,-99.99,,2013-02-03 04:52:00,
2013-02-02 23:00:00,6.0,0.0,-100.00,NE,45,1.0,3.0,76,-99.99,,,-99.99,,2013-02-03 05:00:00,
2013-02-02 23:22:00,6.0,0.0,-100.00,NE,45,1.0,3.0,76,-99.99,,,-99.99,,2013-02-03 05:22:00,
2013-02-02 23:32:00,6.0,0.0,-100.00,NE,45,1.0,3.0,76,-99.99,,,-99.99,,2013-02-03 05:32:00,
2013-02-02 23:42:00,6.0,0.0,-100.00,NE,45,1.0,3.0,76,-99.99,,,-99.99,,2013-02-03 05:42:00,
2013-02-02 23:52:00,6.0,0.0,-100.00,NE,45,1.0,3.0,76,-99.99,,,-99.99,,2013-02-03 05:52:00,